Погода в Ратьзя

Вьетнам     10°01′03″N   105°05′14″E
темп.,
°C
ветер,
м/с
пор.,
м/с
влажн.,
%
обл.,
%
осадки,
мм/ч
давл.,
гПа
погр.,
м
17 августа, ср
ср1701:00+28зюз5677100 0.1 1008598
04:00+28юз4677100 0.0 1008756
07:00+28юз6776100 0.2 1009709
10:00+29зюз67749 0.0 1010944
13:00+29юз777563 0.0 1008879
16:00+29юз787689 0.0 1006901
19:00+28зюз6778100 0.1 1007682
22:00+28зюз56785 0.0 1010623
18 августа, чт
чт1801:00+28зюз567712 0.0 1008678
04:00+28зюз6777100 0.1 1007705
07:00+28з677471 0.1 1008756
10:00+29з67725 0.0 1009906
13:00+29з787326 0.0 1008941
16:00+29зюз787428 0.0 1006755
19:00+29зюз8979100 0.0 1007615
22:00+28з7880100 0.0 1008626
19 августа, пт
пт1901:00+28з7878100 0.0 1007670
04:00+28з7878100 0.0 1006658
07:00+28з7979100 0.1 1007742
10:00+28з8980100 1.6 1008599
13:00+29з8977100 4.3 1006913
16:00+29зюз91179100 0.2 1005886
19:00+29з81182100 0.6 1006882
22:00+29з71082100 0.0 1008846
20 августа, сб
сб2001:00+28зюз81080100 0.0 1006813
04:00+28з7979100 0.0 1006780
07:00+29з8108038 0.0 1007972
10:00+29з8107659 0.0 10081044
13:00+29з91177100 0.2 10051058
16:00+29з91178100 0.1 1004989
19:00+29з81080100 0.1 1006926
22:00+29зюз7981100 0.0 1007869
21 августа, вс
вс2101:00+28зюз71079100 0.1 1005852
04:00+28зюз81178100 0.3 1005985
07:00+28з91178100 0.5 10061055
10:00+29з81075100 0.1 10071044
13:00+29з81077100 0.9 10061021
16:00+29з81076100 0.3 10051004
19:00+28зюз8978100 0.6 1006856
22:00+29юз6879100 0.0 1008825